Location: Aytr�
(46.1357°N, 1.1145°W)
Time: 18:18:00
(UTC+00:00)

Helios 1A Rocket - Pass Details

Date: 03 March 2021
Orbit: 563 x 585 km, 98.3° (Epoch: 16 April)

Event Time Altitude Azimuth Distance (km) Brightness Sun altitude
Rises 19:13:12 0° 170° (S) 2,767 6.2 -14.5°
Reaches altitude 10° 19:15:21 10° 173° (S) 1,871 5.4 -14.9°
Maximum altitude 19:19:23 71° 257° (WSW) 607 3.1 -15.6°
Drops below altitude 10° 19:23:26 10° 342° (NNW) 1,875 5.9 -16.3°
Sets 19:25:35 0° 345° (NNW) 2,774 6.7 -16.7°
